Weather History for Eveleth, MN

Change the Weather History Date:

Thursday, April 25, 2013

  Actual Average Record
Temperature  
Mean Temperature 32 °F -  
Max Temperature 42 °F 56 °F 80 °F (1990)
Min Temperature 22 °F 29 °F 22 °F (2013)
Degree Days  
Heating Degree Days 33    
Moisture  
Dew Point 24 °F    
Average Humidity 70    
Maximum Humidity 95    
Minimum Humidity 39    
Precipitation  
Precipitation 0.00 in - - ()
Sea Level Pressure  
Sea Level Pressure 30.04 in    
Wind  
Wind Speed 5 mph (WSW)    
Max Wind Speed 14 mph    
Max Gust Speed 20 mph    
Visibility 10 miles    
Events      
Averages and records for this station are not official NWS values.
T = Trace of Precipitation, MM = Missing Value Source: NWS Daily Summary

Daily Weather History Graph

Daily Weather History Graph

Search for Another Location

Airport:

Trip Planner

Search our weather history database for the weather conditions in past years. The results will help you decide how hot, cold, wet, or windy it might be!

Date:

Astronomy

Apr. 25, 2013 Rise Set
Actual Time 6:02 AM CDT 8:13 PM CDT
Civil Twilight 5:29 AM CDT 8:47 PM CDT
Nautical Twilight 4:48 AM CDT 9:29 PM CDT
Astronomical Twilight 4:01 AM CDT 10:16 PM CDT
Moon 8:29 PM CDT (4/25) 5:46 AM CDT (4/25)
Length of Visible Light 15h 17m
Length of Day
14h 10m
Full, 100% of the Moon is Illuminated
Apr 25
Full
Apr 25
Full
May 2
Last Quarter
May 9
New
May 17
First Quarter

Hourly Weather History & Observations

Time (CDT) Temp. Windchill Dew Point Humidity Pressure Visibility Wind Dir Wind Speed Gust Speed Precip Events Conditions
12:09 AM 24.8 °F 20.5 °F 23.5 °F 95% 29.91 in 4.0 mi WNW 3.5 mph - N/A   Clear
12:30 AM 26.1 °F 21.9 °F 24.8 °F 95% 29.91 in 7.0 mi NW 3.5 mph - N/A   Clear
12:49 AM 25.2 °F 20.9 °F 23.9 °F 95% 29.92 in 10.0 mi West 3.5 mph - N/A   Scattered Clouds
1:09 AM 22.6 °F 18.0 °F 21.2 °F 94% 29.92 in 10.0 mi West 3.5 mph - N/A   Scattered Clouds
1:29 AM 23.2 °F - 21.9 °F 95% 29.92 in 10.0 mi Calm Calm - N/A   Clear
1:49 AM 23.0 °F - 21.6 °F 94% 29.93 in 10.0 mi Calm Calm - N/A   Clear
2:10 AM 22.5 °F 17.8 °F 21.0 °F 94% 29.93 in 10.0 mi West 3.5 mph - N/A   Clear
2:29 AM 25.5 °F - 23.9 °F 94% 29.93 in 10.0 mi Calm Calm - N/A   Scattered Clouds
2:50 AM 25.2 °F 19.5 °F 23.9 °F 95% 29.95 in 10.0 mi West 4.6 mph - N/A   Scattered Clouds
3:10 AM 27.3 °F 23.4 °F 25.9 °F 94% 29.95 in 10.0 mi West 3.5 mph - N/A   Overcast
3:29 AM 27.5 °F 23.6 °F 25.7 °F 93% 29.95 in 10.0 mi WSW 3.5 mph - N/A   Mostly Cloudy
3:50 AM 25.7 °F - 23.9 °F 93% 29.95 in 10.0 mi Calm Calm - N/A   Scattered Clouds
4:10 AM 24.3 °F - 22.8 °F 94% 29.96 in 10.0 mi Calm Calm - N/A   Mostly Cloudy
4:29 AM 26.2 °F - 24.6 °F 94% 29.97 in 10.0 mi Calm Calm - N/A   Mostly Cloudy
4:50 AM 24.3 °F 19.9 °F 23.0 °F 95% 29.98 in 10.0 mi West 3.5 mph - N/A   Mostly Cloudy
5:10 AM 27.5 °F 23.6 °F 26.1 °F 94% 29.98 in 10.0 mi WNW 3.5 mph - N/A   Overcast
5:29 AM 28.8 °F - 27.3 °F 94% 29.98 in 10.0 mi Calm Calm - N/A   Overcast
5:50 AM 30.0 °F 23.2 °F 28.4 °F 94% 29.99 in 7.0 mi West 6.9 mph - N/A   Overcast
6:10 AM 30.0 °F 26.5 °F 28.4 °F 94% 29.99 in 5.0 mi West 3.5 mph - N/A   Overcast
6:29 AM 30.0 °F 25.2 °F 28.4 °F 94% 30.00 in 7.0 mi West 4.6 mph - N/A   Overcast
6:50 AM 30.0 °F 25.2 °F 28.4 °F 94% 30.01 in 10.0 mi West 4.6 mph - N/A   Overcast
7:10 AM 30.0 °F 21.7 °F 28.4 °F 94% 30.02 in 10.0 mi WNW 9.2 mph - N/A   Overcast
7:29 AM 30.0 °F 22.4 °F 28.2 °F 93% 30.03 in 10.0 mi West 8.1 mph - N/A   Overcast
7:50 AM 30.0 °F 21.7 °F 28.2 °F 93% 30.04 in 10.0 mi West 9.2 mph - N/A   Overcast
8:10 AM 30.0 °F 20.5 °F 28.4 °F 94% 30.05 in 10.0 mi West 11.5 mph - N/A   Overcast
8:29 AM 30.0 °F 21.7 °F 28.0 °F 92% 30.06 in 10.0 mi WNW 9.2 mph - N/A   Overcast
8:50 AM 30.0 °F 21.7 °F 27.3 °F 90% 30.06 in 10.0 mi West 9.2 mph - N/A   Overcast
9:10 AM 32.2 °F 26.7 °F 28.9 °F 88% 30.07 in 10.0 mi West 5.8 mph - N/A   Overcast
9:29 AM 32.2 °F 26.7 °F 28.2 °F 85% 30.07 in 10.0 mi West 5.8 mph - N/A   Overcast
9:50 AM 32.2 °F 26.7 °F 27.5 °F 83% 30.08 in 10.0 mi West 5.8 mph - N/A   Overcast
10:09 AM 32.2 °F 27.7 °F 26.8 °F 80% 30.08 in 10.0 mi West 4.6 mph 9.2 mph N/A   Overcast
10:30 AM 33.6 °F 27.5 °F 27.5 °F 78% 30.09 in 10.0 mi West 6.9 mph - N/A   Overcast
10:49 AM 34.9 °F 29.0 °F 28.2 °F 77% 30.09 in 10.0 mi SW 6.9 mph - N/A   Overcast
11:10 AM 36.7 °F 30.5 °F 28.6 °F 72% 30.09 in 10.0 mi SW 8.1 mph - N/A   Overcast
11:30 AM 37.4 °F 28.9 °F 27.7 °F 68% 30.10 in 10.0 mi WSW 13.8 mph - N/A   Overcast
11:49 AM 37.4 °F 30.3 °F 27.1 °F 66% 30.10 in 10.0 mi WSW 10.4 mph - N/A   Mostly Cloudy
12:10 PM 37.4 °F 31.4 °F 26.4 °F 65% 30.10 in 10.0 mi West 8.1 mph 19.6 mph N/A   Mostly Cloudy
12:29 PM 37.4 °F 30.3 °F 25.0 °F 61% 30.10 in 10.0 mi WSW 10.4 mph - N/A   Mostly Cloudy
12:49 PM 38.3 °F 32.5 °F 23.7 °F 56% 30.10 in 10.0 mi WSW 8.1 mph - N/A   Mostly Cloudy
1:09 PM 37.8 °F 32.5 °F 24.1 °F 58% 30.10 in 10.0 mi West 6.9 mph - N/A   Mostly Cloudy
1:29 PM 39.4 °F 33.2 °F 23.7 °F 54% 30.10 in 10.0 mi West 9.2 mph 16.1 mph N/A   Mostly Cloudy
1:50 PM 39.7 °F 34.3 °F 23.4 °F 52% 30.10 in 10.0 mi West 8.1 mph 17.3 mph N/A   Scattered Clouds
2:09 PM 40.1 °F 34.7 °F 24.6 °F 54% 30.09 in 10.0 mi SW 8.1 mph 12.7 mph N/A   Scattered Clouds
2:29 PM 40.1 °F 33.2 °F 22.8 °F 50% 30.09 in 10.0 mi West 11.5 mph - N/A   Scattered Clouds
2:50 PM 40.1 °F 34.7 °F 23.4 °F 51% 30.09 in 10.0 mi West 8.1 mph - N/A   Scattered Clouds
3:09 PM 40.1 °F 34.7 °F 23.2 °F 51% 30.08 in 10.0 mi SW 8.1 mph - N/A   Scattered Clouds
3:29 PM 41.2 °F 35.5 °F 23.2 °F 49% 30.08 in 10.0 mi WSW 9.2 mph - N/A   Scattered Clouds
3:50 PM 42.4 °F 38.8 °F 22.3 °F 45% 30.07 in 10.0 mi SW 5.8 mph - N/A   Scattered Clouds
4:09 PM 42.4 °F 37.5 °F 21.4 °F 43% 30.07 in 10.0 mi WSW 8.1 mph 16.1 mph N/A   Clear
4:29 PM 42.4 °F 38.1 °F 19.9 °F 41% 30.06 in 10.0 mi SW 6.9 mph - N/A   Clear
4:50 PM 42.4 °F 36.5 °F 21.0 °F 43% 30.06 in 10.0 mi WSW 10.4 mph - N/A   Clear
5:09 PM 42.4 °F 38.1 °F 19.9 °F 41% 30.06 in 10.0 mi SSW 6.9 mph - N/A   Clear
5:29 PM 42.6 °F 37.8 °F 19.9 °F 40% 30.06 in 10.0 mi SW 8.1 mph 18.4 mph N/A   Clear
5:50 PM 42.6 °F 36.8 °F 19.4 °F 39% 30.06 in 10.0 mi SW 10.4 mph 17.3 mph N/A   Clear
6:09 PM 42.4 °F 36.5 °F 20.1 °F 41% 30.06 in 10.0 mi SSW 10.4 mph 16.1 mph N/A   Clear
6:29 PM 42.4 °F 36.1 °F 21.0 °F 43% 30.06 in 10.0 mi SW 11.5 mph 18.4 mph N/A   Clear
6:50 PM 42.4 °F 36.1 °F 20.5 °F 42% 30.06 in 10.0 mi SW 11.5 mph 17.3 mph N/A   Clear
7:09 PM 42.4 °F 36.1 °F 20.5 °F 42% 30.06 in 10.0 mi SW 11.5 mph - N/A   Clear
7:30 PM 42.4 °F 35.7 °F 21.4 °F 43% 30.06 in 10.0 mi SSW 12.7 mph 16.1 mph N/A   Clear
7:49 PM 40.1 °F 32.7 °F 21.2 °F 47% 30.07 in 10.0 mi SSW 12.7 mph 18.4 mph N/A   Clear
8:09 PM 40.1 °F 34.1 °F 21.7 °F 48% 30.07 in 10.0 mi SW 9.2 mph - N/A   Clear
8:30 PM 37.6 °F 33.1 °F 20.5 °F 50% 30.08 in 10.0 mi SSW 5.8 mph - N/A   Clear
8:49 PM 37.4 °F 33.8 °F 20.3 °F 50% 30.08 in 10.0 mi South 4.6 mph - N/A   Clear
9:09 PM 37.4 °F 33.8 °F 21.6 °F 53% 30.09 in 10.0 mi South 4.6 mph - N/A   Clear
9:30 PM 37.4 °F 32.8 °F 21.6 °F 53% 30.10 in 10.0 mi SW 5.8 mph - N/A   Scattered Clouds
9:49 PM 37.4 °F 33.8 °F 21.6 °F 53% 30.10 in 10.0 mi SSW 4.6 mph - N/A   Mostly Cloudy
10:09 PM 37.4 °F 33.8 °F 21.2 °F 52% 30.10 in 10.0 mi SSW 4.6 mph - N/A   Overcast
10:30 PM 37.4 °F 33.8 °F 21.0 °F 52% 30.09 in 10.0 mi SSW 4.6 mph - N/A   Mostly Cloudy
10:49 PM 37.4 °F - 21.0 °F 52% 30.09 in 10.0 mi Calm Calm - N/A   Mostly Cloudy
11:09 PM 34.9 °F - 20.3 °F 55% 30.08 in 10.0 mi Calm Calm - N/A   Mostly Cloudy
11:30 PM 32.9 °F - 21.4 °F 63% 30.08 in 10.0 mi Calm Calm - N/A   Overcast
11:49 PM 32.2 °F - 20.3 °F 62% 30.07 in 10.0 mi Calm Calm - N/A   Overcast